Погода в Вельске

Поиск расширенной информации на нашем сайте:

Полезная информация:

Новости сайта



02.01.2020
Опубликован Долгосрочный прогноз погоды по городам России и ближнего зарубежья на январь 2020 года.
Карты: Прогноз на январь и февраль 2020 года, Сравнение прогнозируемой аномалии приземной температуры воздуха на январь 2020 года по разным моделям.




Погода в Вельске - сегодня

Время (UTC), дата Ветер
(°,м/с) 
Видим.   Явления Облачность Т
(°С)
Тd
(°С)
f(%) Тe
(°С)
Pmin
(гПа)
dP
(гПа)
Po
(мм)
O2
(г/м3)
Тmin Tmax R s Состояние
почвы
21 29.11.20 120 (ЮВ) 20000 м    10/10 300 м 
[Sc]
-4.4 -5.1 95 -6  1038.9  -0.5  770  316           
00 30.11.20 140 (ЮВ) 20000 м    10/10 300 м 
[Sc]
-3.6 -4.1 96 -6  1038.4  -0.5  770  315           
03 30.11.20 110 (В) 10 км    10/10 300 м 
[St]
-3 -3.2 99 -4  1036.9  -1.4  769  314  -6.2      равномерный
сухой снег
100% 
06 30.11.20 130 (ЮВ) 10 км    10/10 300 м 
[St]
-1.9 -2.2 98 -4  1036.1  -0.8  768  312           
09 30.11.20 130 (ЮВ) 10 км    10/10 300 м 
[St]
-0.8 -1.6 94 -3  1035.1  -0.9  768  310           
12 30.11.20 130 (ЮВ) 20000 м    9/9 300 м 
[Sc]
-0.5 -1.5 93 -2  1033.3  -1.8  766  310           
15 30.11.20 140 (ЮВ) 20000 м  в посл. час ливневой снег  10/10 300 м кучево-дожд. 
[Cb cap]
+0.2 -1.2 90 -1  1031.4  -1.8  765  308    +0.2  0.0     
18 30.11.20 160 (Ю) 10 км  слаб. ливневой снег  10/10 300 м кучево-дожд. 
[Cb cap]
+0.3 -1 91 -2  1030.1  -1.3  764  308           
21 30.11.20 170 (Ю) 20000 м  в посл. час ливневой снег  10/10 300 м кучево-дожд. 
[Cb cap]
+0.3 -1 91 -1  1029.9  -0.2  764  308           
00 01.12.20 170 (Ю) 20000 м  слаб. ливневой снег  10/10 300 м кучево-дожд. 
[Cb cap]
-0.1 -1.2 92 -2  1029.6  -0.3  764  308           
03 01.12.20 170 (Ю) 5-10{10}  20000 м  {ливн. осадки}  10/10 300 м 
[Sc]
-1.4 -3.1 88 -5  1029.2  -0.4  763  310  -1.4    0.1  равномерный
сухой снег
100% 
06 01.12.20 160 (Ю) 3{10}  20000 м  в посл. час ливневой снег  10/10 300 м кучево-дожд. 
[Cb cap]
-2.4 -3.8 90 -4  1029.4  0.1  763  311  -2.4         
09 01.12.20 170 (Ю) 10 км  слаб. ливневой снег  10/10 300 м кучево-дожд. 
[Cb cap]
-2.9 -4.4 89 -6  1029.6  0.3  764  311           
12 01.12.20 170 (Ю) 4000 м  слаб. ливневой снег  10/10 300 м кучево-дожд. 
[Cb cap]
-2.8 -3.7 94 -5  1029.7  764  311           
15 01.12.20 170 (Ю) 20000 м  {ливн. осадки}  8/8 600 м 
[Sc]
-3 -4.4 90 -6  1030.6  0.9  764  312    -1.4  0.7     
18 01.12.20 190 (Ю) 20000 м  {ливн. осадки}  9/9 600 м 
[Sc]
-2.7 -4.2 89 -6  1031.4  0.8  765  312           
21 01.12.20 180 (Ю) 20000 м    10/10 300 м 
[Sc]
-2.8 -4.3 89 -6  1031.7  0.3  765  312           
00 02.12.20 200 (Ю) 20000 м    10/10 300 м 
[Sc]
-2.5 -4 89 -5  1031.7  765  312           
03 02.12.20 190 (Ю) 10 км  слаб. ливневой снег  10/10 300 м кучево-дожд. 
[Cb cap]
-2.4 -3.5 92 -3  1031.6  0.1  765  311  -3    0.0  равномерный
сухой снег
100% 
06 02.12.20 210 (ЮЗ) 10 км  в посл. час ливневой снег  9/9 600 м кучево-дожд. 
[Cb cap]
-1.9 -3 92 -3  1032.2  0.6  765  311           
09 02.12.20 210 (ЮЗ) 20000 м    9/8 600 м средняя 
[Sc|Ac trans]
-1.4 -2.9 89 -2  1033.2  766  311           
12 02.12.20 190 (Ю) 20000 м  в посл. час ливневой снег  9/8 600 м кучево-дожд., средняя 
[Cb cap|Ac trans]
-1.2 -2.4 92 -2  1033.6  0.4  767  311           
15 02.12.20 210 (ЮЗ) 20000 м    10/10 600 м 
[Sc]
-1.4 -2.7 91 -2  1034.4  0.8  767  311    -1.2  0.4     
18 02.12.20 200 (Ю) 10 км  слаб. ливневой снег  9/9 300 м кучево-дожд. 
[Cb cap]
-1.8 -2.9 92 -3  1035.1  0.6  768  312           
21 02.12.20 210 (ЮЗ) 20000 м  {ливн. осадки}  10/10 600 м 
[Sc]
-1.9 -3.4 89 -1  1035.8  0.7  768  312           
Время (UTC), дата Ветер
(°,м/с) 
Видим.   Явления Облачность Т
(°С)
Тd
(°С)
f(%) Тe
(°С)
Pmin
(гПа)
dP
(гПа)
Po
(мм)
O2
(г/м3)
Тmin Tmax R s Состояние
почвы

Для получения пояснительной информации подведите курсор к названию столбца.

ПОГОДА в Вельске - архив

Всё, что Вы хотите узнать о погоде в Вельске - удобно и подробно!

Выберите нужную дату (начиная с 1 января 2019* года) и нажмите кнопку "Найти".
Будут отображены архивные сводки погоды по пункту Вельск, начиная с указанной даты.


Отображать данные в формате CSV (для использования в таблицах Excel)


Внимание! Наш архив погоды предназначен исключительно для личного некоммерческого использования в познавательных целях. Если Вам необходимы официальные справки о состоянии погоды (для производственных, юридических, коммерческих и т.п. целей), обращайтесь в органы Росгидромета.

*Примечание: данная дата относится к архиву по метеостанциям СССР (Россия, СНГ, Балтия).
Архив по метеостанциям Зарубежной Европы и Азии (кроме Китая) хранится 10 дней, по другим регионам земного шара (Китай, Африка, Америка, Австралия, Океания) - 1 день.

Вельск - район местоположения метеостанции


Название, широта, долгота, высота метеостанции:
Вельск 61.1°ш. 42.1°д. 91 м над ур. моря [Российская Федерация]

Дополнительная информация

В oтличие oт бoльшинства пoгoдных сайтoв мы публикуем пoдрoбную метеoинфoрмацию в детальнoм прoфессиoнальнoм фoрмате.

Характеристики температуры и влажнoсти вoздуха измеряются на высoте 2 м в тени вдали oт зданий и деревьев.
Скoрoсть ветра измеряется на высoте 10 м (на урoвне рoста челoвека скoрoсть ветра ниже в 1.5-2 раза). Если метеoстанция нахoдится в гoрoде или в лесу, тo скoрoсть ветра занижена на 2-4 м/с пo сравнению с oткрытым местoм. Скoрoсть ветра над акватoриями крупных рек и oзёр, а также на вершинах хoлмoв на 2-5 м/с выше, чем в oбычных услoвиях.
Атмoсфернoе давление в разных тoчках местнoсти мoжет значительнo oтличаться oт давления на метеoстанции, в зависимoсти oт услoвий рельефа (при пoдъёме на 10 м давление пoнижается примернo на 1 мм рт.ст.).